Regional Weather Roundup
Issued by NWS Charleston, SC

Current Version | Previous Version | Text Only | Print | Product List | Glossary Off
Versions: 1 2 3 4 5 6 7 8 9 10 11 12 13 14 15 16 17 18 19 20 21 22 23 24 25 26 27 28 29 30 31 32 33 34 35 36 37 38 39 40 41 42 43 44 45 46 47 48 49 50

000
ASUS42 KCHS 081827
RWRCHS

REGIONAL WEATHER ROUNDUP
NATIONAL WEATHER SERVICE CHARLESTON SC
100 PM EST THU DEC 08 2016

NOTE: "FAIR" INDICATES FEW OR NO CLOUDS BELOW 12,000 FEET WITH NO
SIGNIFICANT WEATHER AND/OR OBSTRUCTIONS TO VISIBILITY.

NOT ALL STATIONS ARE QUALITY CONTROLLED. USE DATA WITH CAUTION...
ESPECIALLY DEWPOINT OBSERVATIONS.

SCZ027-030-031-034>040-042>050-081900-
...SOUTHEAST SOUTH CAROLINA...

CITY           SKY/WX    TMP DP  RH WIND       PRES   REMARKS
N CHARLESTON   MOSUNNY   66  48  52 W9        30.07F
6HR MIN TEMP:  52; 6HR MAX TEMP:  66;

WATERFRONT PRK   N/A     62  53  72 VRB3      30.06F
MOUNT PLEASANT FAIR      63  52  67 NW8       30.06F
JOHNS ISLAND   FAIR      66  50  55 W10       30.07F
PINOPOLIS        N/A     57  52  82 NW6       29.99F
MONCKS CORNER  FAIR      61  48  63 N9        30.08R
SUMMERVILLE    FAIR      64  50  59 W10       30.09S
BEAUFORT MCAS  SUNNY     64  44  48 W12G20    30.09F
6HR MIN TEMP:  52; 6HR MAX TEMP:  64;

BEAUFORT ARPT  FAIR      63  45  51 W10       30.09S
HILTON HEAD IS SUNNY     64  45  48 SW12      30.10F
WALTERBORO     CLEAR     64  45  48 W9G17     30.10S
ALLENDALE      FAIR      61  45  55 VRB7      30.11S

...SOUTHERN MIDLANDS AND PEE DEE...

CITY           SKY/WX    TMP DP  RH WIND       PRES   REMARKS
GEORGETOWN     MOCLDY    59  50  72 NW9       30.07F
KINGSTREE      CLOUDY    61  45  55 NW10      30.07F
ORANGEBURG     MOSUNNY   62  44  51 NW8       30.10F
6HR MIN TEMP:  53; 6HR MAX TEMP:  62;

BARNWELL       NOT AVBL
AIKEN          FAIR      55  43  62 NW6       30.15F
MANNING        FAIR      61  45  55 NW5       30.08S
COLUMBIA       CLOUDY    56  45  66 N8        30.12F
6HR MIN TEMP:  53; 6HR MAX TEMP:  57;

SUMTER         PTSUNNY   55  46  71 NW10      30.08F
FLORENCE       CLOUDY    57  49  74 N12       30.09F
6HR MIN TEMP:  52; 6HR MAX TEMP:  60;

MYRTLE BEACH   PTSUNNY   59  50  72 NW8       30.09F
N MYRTLE BEACH PTSUNNY   59  50  72 VRB7      30.06F
6HR MIN TEMP:  49; 6HR MAX TEMP:  58;


$$

GAZ063-065-086>088-099>101-113>116-118-119-134>141-150-081900-
...SOUTHEAST GEORGIA...

CITY           SKY/WX    TMP DP  RH WIND       PRES   REMARKS
SAVANNAH ARPT  PTSUNNY   64  41  42 W13       30.12F
6HR MIN TEMP:  49; 6HR MAX TEMP:  64;

HUNTER AAF     SUNNY     64  49  57 NW12      30.09F
6HR MIN TEMP:  47; 6HR MAX TEMP:  64;

FORT STEWART   SUNNY     62  41  46 W9        30.11F
6HR MIN TEMP:  49; 6HR MAX TEMP:  62;

STATESBORO     SUNNY     62  44  52 NW8       30.12F
SYLVANIA       CLEAR    N/A N/A N/A NW10      30.13F
CLAXTON        FAIR      62  43  49 SW10      30.13F

...CSRA...CENTRAL AND FAR SOUTHEAST GEORGIA...

CITY           SKY/WX    TMP DP  RH WIND       PRES   REMARKS
THOMSON        SUNNY     60  43  52 NW6G18    30.20S
AUGUSTA-BUSH   SUNNY     59  42  53 N10       30.13F
6HR MIN TEMP:  47; 6HR MAX TEMP:  60;

AUGUSTA-DANIEL SUNNY     57  41  55 N9        30.14F
SWAINSBORO     FAIR      61  37  41 MISG      30.15F
VIDALIA        SUNNY     61  43  51 NW12      30.15F
EASTMAN        FAIR      62  20  20 NW8       30.20F
HAZLEHURST     FAIR      63  38  40 NW5       30.15F
ALMA           NOT AVBL
WAYCROSS       SUNNY     65  51  60 NW8       30.15F
JESUP          FAIR      63  46  55 NW13      30.14F
BAXLEY         FAIR      61  41  48 NW8       30.14F
BRUNSWICK      SUNNY     64  52  63 W10       30.13F
SAINT SIMONS   SUNNY     60  48  64 NW7       30.12F
6HR MIN TEMP:  50; 6HR MAX TEMP:  61;


$$

SCZ027-028-034-036>038-045-046-048>050-GAZ119-141-081900-
...LAKE AND SUPPLEMENTAL COASTAL OBSERVATIONS...

STATION/POSITION TIME  TEMP    WIND        PRES    WAVE   SWELL
                       AIR SEA DIR/SP/G            HT/PER HT/PER/DIR
                 (UTC) (F)     (DEG/KT/KT) (MB)    (FT/S) (FT/S/D)
WINYAH BAY       1745   58     310/  6     1018.0F
LAKE MURRAY      1750   56     340/  4/  9 1019.6F
ACE BASIN NERRS  1745   63     300/  3     1019.0S
FORT PULASKI     1800   60 62  310/ 13/ 16 1019.5
SAPELO ISLAND    1800   62     290/  6     1020.0

$$

ANZ835-935-AMZ111-154-330-350-352-354-370-450-454-472-081900-
...C-MAN AND BUOY OBSERVATIONS...

STATION/POSITION TIME  TEMP    WIND        PRES    WAVE   SWELL
                       AIR SEA DIR/SP/G            HT/PER HT/PER/DIR
                 (UTC) (F)     (DEG/KT/KT) (MB)    (FT/S) (FT/S/D)
BUOY 41004       1750   60 74  320/ 14/ 17 1017.5F   3/ 4   2/ 70/ 9
BUOY 41008       1750   57 64  270/ 12/ 14 1019.7F   2/ 4   2/ 40/12
FOLLY BEACH CMAN 1800   62     300/  5/  6 1018.7F
CAPERS NEARSHORE 1708   57 61  320/  8/ 10 1018.5F
FRIPP NEARSHORE  1808   60 62  270/ 10/ 14 1018.2F


STATION/POSITION TIME  TEMP    WIND        PRES    WAVE   SWELL
                       AIR SEA DIR/SP/G            HT/PER HT/PER/DIR
                 (UTC) (F)     (DEG/KT/KT) (MB)    (FT/S) (FT/S/D)
5E ST. MARYS GA  1800      66                N/A     2/ 3
FRYING PAN BUOY  1810   61 74  300/ 16/ 19 1016.9
BUOY 41025       1750   63 78  250/ 19/ 25 1015.0F   4/11   3/ 90/11
CAPE LOOKOUT NC  1800   56     280/ 16/ 18 1015.9F
BUOY 41002       1750   73 74  260/ 12/ 14 1016.3F   5/10   3/ 20/10
BUOY 41010       NOT AVBL
ST AUGUSTINE FL  1800   62 67  340/  9/ 11 1020.9F


$$




USA.gov is the U.S. government's official web portal to all federal, state and local government web resources and services.